Weather History for McCook, NE

Change the Weather History Date:

Thursday, October 24, 2013

  Actual Average Record
Temperature  
Mean Temperature 41 °F 48 °F  
Max Temperature 49 °F 64 °F 89 °F (2014)
Min Temperature 32 °F 33 °F 22 °F (2005)
Degree Days  
Heating Degree Days 24    
Moisture  
Dew Point 34 °F    
Average Humidity 76    
Maximum Humidity 89    
Minimum Humidity 61    
Precipitation  
Precipitation 0.00 in 0.06 in 0.28 in (1953)
Month to date precipitation 0.58 1.45  
Year to date precipitation 12.10 20.60  
Sea Level Pressure  
Sea Level Pressure 30.37 in    
Wind  
Wind Speed 3 mph (SSE)    
Max Wind Speed 8 mph    
Max Gust Speed -    
Visibility 10 miles    
Events      
T = Trace of Precipitation, MM = Missing Value Source: NWS Daily Summary

Daily Weather History Graph

Daily Weather History Graph

Search for Another Location

Airport:

Trip Planner

Search our weather history database for the weather conditions in past years. The results will help you decide how hot, cold, wet, or windy it might be!

Date:

Astronomy

Oct. 24, 2013 Rise Set
Actual Time 8:03 AM CDT 6:49 PM CDT
Civil Twilight 7:35 AM CDT 7:17 PM CDT
Nautical Twilight 7:03 AM CDT 7:48 PM CDT
Astronomical Twilight 6:32 AM CDT 8:20 PM CDT
Moon 11:15 PM CDT (10/24) 1:05 PM CDT (10/24)
Length of Visible Light 11h 41m
Length of Day
10h 46m
Waning Gibbous, 71% of the Moon is Illuminated
Oct 24
Waning Gibbous
Oct 26
Last Quarter
Nov 3
New
Nov 9
First Quarter
Nov 17
Full

Hourly Weather History & Observations

Time (CDT) Temp. Windchill Dew Point Humidity Pressure Visibility Wind Dir Wind Speed Gust Speed Precip Events Conditions
12:53 AM 39.9 °F - 34.0 °F 79% 30.26 in 10.0 mi Calm Calm - N/A   Clear
1:53 AM 35.1 °F - 30.9 °F 85% 30.28 in 10.0 mi Calm Calm - N/A   Clear
2:53 AM 34.0 °F 29.8 °F 30.9 °F 89% 30.29 in 10.0 mi SW 4.6 mph - N/A   Clear
3:53 AM 35.1 °F - 32.0 °F 89% 30.29 in 10.0 mi Calm Calm - N/A   Clear
4:53 AM 34.0 °F - 30.9 °F 89% 30.31 in 10.0 mi Calm Calm - N/A   Overcast
5:53 AM 36.0 °F - 33.1 °F 89% 30.32 in 10.0 mi Calm Calm - N/A   Overcast
6:53 AM 36.0 °F 33.3 °F 32.0 °F 86% 30.34 in 10.0 mi SSW 3.5 mph - N/A   Overcast
7:53 AM 36.0 °F - 32.0 °F 86% 30.37 in 10.0 mi Calm Calm - N/A   Overcast
8:53 AM 37.0 °F 34.5 °F 33.1 °F 86% 30.40 in 10.0 mi WSW 3.5 mph - N/A   Overcast
9:53 AM 39.0 °F - 34.0 °F 82% 30.43 in 10.0 mi Calm Calm - N/A   Overcast
10:50 AM 42.8 °F 38.0 °F 33.8 °F 70% 30.39 in 10.0 mi ESE 8.1 mph - N/A   Overcast
10:53 AM 42.1 °F 37.7 °F 35.1 °F 76% 30.43 in 10.0 mi ESE 6.9 mph - N/A   Overcast
11:53 AM 43.0 °F 38.8 °F 35.1 °F 74% 30.44 in 10.0 mi SSE 6.9 mph - N/A   Overcast
12:53 PM 45.0 °F 41.2 °F 35.1 °F 68% 30.43 in 10.0 mi SE 6.9 mph - N/A   Overcast
1:53 PM 46.0 °F 42.5 °F 36.0 °F 68% 30.42 in 10.0 mi South 6.9 mph - N/A   Overcast
2:53 PM 46.9 °F - 36.0 °F 66% 30.39 in 10.0 mi SSW 6.9 mph - N/A   Overcast
3:53 PM 48.0 °F - 36.0 °F 63% 30.38 in 10.0 mi South 5.8 mph - N/A   Overcast
4:53 PM 48.9 °F - 36.0 °F 61% 30.36 in 10.0 mi South 4.6 mph - N/A   Overcast
5:53 PM 48.0 °F - 36.0 °F 63% 30.36 in 10.0 mi South 6.9 mph - N/A   Overcast
6:53 PM 46.9 °F - 36.0 °F 66% 30.37 in 10.0 mi SSE 4.6 mph - N/A   Overcast
7:48 PM 44.6 °F 40.7 °F 35.6 °F 71% 30.33 in 10.0 mi ESE 6.9 mph - N/A   Scattered Clouds
7:53 PM 44.1 °F 40.8 °F 35.1 °F 71% 30.38 in 10.0 mi ESE 5.8 mph - N/A   Partly Cloudy
8:53 PM 42.1 °F 38.4 °F 35.1 °F 76% 30.38 in 10.0 mi SE 5.8 mph - N/A   Clear
9:53 PM 39.9 °F 35.1 °F 33.1 °F 77% 30.40 in 10.0 mi SSE 6.9 mph - N/A   Clear
10:53 PM 37.9 °F 34.4 °F 32.0 °F 79% 30.40 in 10.0 mi South 4.6 mph - N/A   Clear
11:53 PM 37.0 °F 33.3 °F 30.0 °F 76% 30.40 in 10.0 mi SSE 4.6 mph - N/A   Clear